Anzahl Datensätze: 286
min. Temperatur: 2.3 °C
max. Temperatur: 9.8 °C
max. Windgeschwindigkeit: 8.9 km/h
Niederschlagsumme: 2.6 mm
| Datum |
Zeit |
Temp °C |
Feuchte % |
Taupunkt °C |
Luftdruck hPa |
Wind km/h |
Windrichtung |
Strahlung w/m² |
Niederschlag mm |
|---|---|---|---|---|---|---|---|---|---|
| 30.03.2026 | 00:04 | 5.9 | 77 | 2.2 | 1024.1 | 1.8 | SW | 0 | 0.0 |
| 30.03.2026 | 00:09 | 5.9 | 77 | 2.2 | 1024.1 | 4.5 | SSW | 0 | 0.0 |
| 30.03.2026 | 00:14 | 5.9 | 77 | 2.2 | 1024.1 | 1.8 | SSW | 0 | 0.0 |
| 30.03.2026 | 00:19 | 5.9 | 77 | 2.2 | 1023.9 | 2.2 | S | 0 | 0.0 |
| 30.03.2026 | 00:24 | 5.9 | 77 | 2.2 | 1023.6 | 1.3 | SSW | 0 | 0.0 |
| 30.03.2026 | 00:29 | 5.9 | 77 | 2.2 | 1023.4 | 1.3 | SSW | 0 | 0.0 |
| 30.03.2026 | 00:34 | 5.9 | 77 | 2.2 | 1023.3 | 3.1 | S | 0 | 0.0 |
| 30.03.2026 | 00:39 | 5.9 | 76 | 2.0 | 1023.2 | 3.6 | SW | 0 | 0.0 |
| 30.03.2026 | 00:44 | 5.8 | 76 | 1.9 | 1023.2 | 2.2 | S | 0 | 0.0 |
| 30.03.2026 | 00:49 | 5.9 | 76 | 2.0 | 1023.1 | 1.8 | SSO | 0 | 0.0 |
| 30.03.2026 | 00:54 | 5.9 | 76 | 2.0 | 1023.1 | 3.6 | SW | 0 | 0.0 |
| 30.03.2026 | 00:59 | 5.9 | 76 | 2.0 | 1023.1 | 3.6 | S | 0 | 0.0 |
| 30.03.2026 | 01:04 | 5.9 | 76 | 2.0 | 1023.0 | 3.6 | SSW | 0 | 0.0 |
| 30.03.2026 | 01:09 | 6.0 | 75 | 1.9 | 1022.7 | 1.3 | SSW | 0 | 0.0 |
| 30.03.2026 | 01:14 | 6.0 | 75 | 1.9 | 1022.5 | 4.0 | S | 0 | 0.0 |
| 30.03.2026 | 01:20 | 6.0 | 75 | 1.9 | 1022.2 | 4.0 | S | 0 | 0.0 |
| 30.03.2026 | 01:25 | 6.0 | 75 | 1.9 | 1022.1 | 3.1 | S | 0 | 0.0 |
| 30.03.2026 | 01:30 | 6.0 | 75 | 1.9 | 1022.0 | 4.0 | S | 0 | 0.0 |
| 30.03.2026 | 01:35 | 6.0 | 75 | 1.9 | 1021.7 | 1.8 | S | 0 | 0.0 |
| 30.03.2026 | 01:40 | 6.0 | 75 | 1.9 | 1021.8 | 3.1 | SSW | 0 | 0.0 |
| 30.03.2026 | 01:45 | 6.0 | 76 | 2.1 | 1021.7 | 1.8 | SSW | 0 | 0.0 |
| 30.03.2026 | 01:50 | 6.0 | 76 | 2.1 | 1021.8 | 1.3 | SW | 0 | 0.0 |
| 30.03.2026 | 01:55 | 6.0 | 77 | 2.3 | 1021.5 | 5.4 | S | 0 | 0.0 |
| 30.03.2026 | 02:00 | 6.0 | 77 | 2.3 | 1021.5 | 1.8 | SW | 0 | 0.0 |
| 30.03.2026 | 02:05 | 6.0 | 78 | 2.5 | 1021.7 | 4.5 | SW | 0 | 0.0 |
| 30.03.2026 | 02:10 | 5.9 | 79 | 2.5 | 1021.6 | 1.8 | SSW | 0 | 0.0 |
| 30.03.2026 | 02:15 | 5.8 | 80 | 2.6 | 1021.6 | 1.3 | SSW | 0 | 0.0 |
| 30.03.2026 | 02:20 | 5.7 | 81 | 2.7 | 1021.4 | 1.3 | SW | 0 | 0.0 |
| 30.03.2026 | 02:25 | 5.6 | 83 | 2.9 | 1021.2 | 2.7 | SSW | 0 | 0.0 |
| 30.03.2026 | 02:30 | 5.4 | 84 | 2.9 | 1020.9 | 3.6 | SSW | 0 | 0.0 |
| 30.03.2026 | 02:35 | 5.2 | 86 | 3.1 | 1020.8 | 2.7 | S | 0 | 0.2 |
| 30.03.2026 | 02:40 | 5.0 | 87 | 3.0 | 1020.7 | 2.7 | S | 0 | 0.2 |
| 30.03.2026 | 02:45 | 4.9 | 87 | 2.9 | 1020.6 | 2.2 | SW | 0 | 0.2 |
| 30.03.2026 | 02:50 | 4.8 | 88 | 3.0 | 1020.4 | 2.2 | SSW | 0 | 0.4 |
| 30.03.2026 | 02:55 | 4.8 | 89 | 3.1 | 1020.1 | 1.8 | SSW | 0 | 0.4 |
| 30.03.2026 | 03:00 | 4.7 | 89 | 3.0 | 1020.1 | 0.9 | S | 0 | 0.4 |
| 30.03.2026 | 03:05 | 4.6 | 90 | 3.1 | 1020.3 | 2.2 | SSW | 0 | 0.4 |
| 30.03.2026 | 03:10 | 4.6 | 90 | 3.1 | 1020.1 | 1.8 | SW | 0 | 0.4 |
| 30.03.2026 | 03:15 | 4.6 | 91 | 3.3 | 1020.0 | 3.1 | SW | 0 | 0.4 |
| 30.03.2026 | 03:20 | 4.5 | 91 | 3.2 | 1019.9 | 2.2 | SW | 0 | 0.4 |
| 30.03.2026 | 03:25 | 4.5 | 91 | 3.2 | 1019.7 | 2.2 | SSW | 0 | 0.4 |
| 30.03.2026 | 03:30 | 4.5 | 92 | 3.3 | 1019.7 | 2.2 | SSW | 0 | 0.4 |
| 30.03.2026 | 03:35 | 4.5 | 91 | 3.2 | 1019.7 | 1.8 | SW | 0 | 0.4 |
| 30.03.2026 | 03:41 | 4.6 | 92 | 3.4 | 1019.6 | 4.0 | SW | 0 | 0.4 |
| 30.03.2026 | 03:46 | 4.6 | 92 | 3.4 | 1019.5 | 1.8 | WSW | 0 | 0.6 |
| 30.03.2026 | 03:51 | 4.6 | 92 | 3.4 | 1019.7 | 1.3 | WSW | 0 | 0.6 |
| 30.03.2026 | 03:56 | 4.6 | 92 | 3.4 | 1019.6 | 1.8 | SW | 0 | 0.6 |
| 30.03.2026 | 04:01 | 4.6 | 92 | 3.4 | 1019.6 | 2.2 | SW | 0 | 0.6 |
| 30.03.2026 | 04:06 | 4.6 | 92 | 3.4 | 1019.6 | 1.8 | SSW | 0 | 0.6 |
| 30.03.2026 | 04:11 | 4.6 | 92 | 3.4 | 1019.5 | 3.1 | S | 0 | 0.6 |
| 30.03.2026 | 04:16 | 4.6 | 92 | 3.4 | 1019.4 | 0.9 | SSW | 0 | 0.6 |
| 30.03.2026 | 04:21 | 4.6 | 92 | 3.4 | 1019.4 | 3.1 | SW | 0 | 0.6 |
| 30.03.2026 | 04:26 | 4.6 | 92 | 3.4 | 1019.4 | 1.8 | WSW | 0 | 0.6 |
| 30.03.2026 | 04:31 | 4.7 | 92 | 3.5 | 1019.3 | 1.8 | SW | 0 | 0.6 |
| 30.03.2026 | 04:36 | 4.7 | 92 | 3.5 | 1019.1 | 2.7 | SSW | 0 | 0.6 |
| 30.03.2026 | 04:41 | 4.8 | 92 | 3.6 | 1019.1 | 2.2 | SSW | 0 | 0.6 |
| 30.03.2026 | 04:46 | 4.8 | 92 | 3.6 | 1018.9 | 2.7 | SW | 0 | 0.6 |
| 30.03.2026 | 04:51 | 4.8 | 93 | 3.8 | 1018.8 | 1.3 | SSW | 0 | 0.6 |
| 30.03.2026 | 04:56 | 4.9 | 93 | 3.9 | 1018.8 | 2.2 | SW | 0 | 0.6 |
| 30.03.2026 | 05:01 | 4.9 | 93 | 3.9 | 1018.5 | 1.8 | SSW | 0 | 0.6 |
| 30.03.2026 | 05:06 | 4.9 | 93 | 3.9 | 1018.5 | 1.8 | SW | 0 | 0.6 |
| 30.03.2026 | 05:11 | 5.0 | 93 | 4.0 | 1018.2 | 1.3 | SSW | 0 | 0.8 |
| 30.03.2026 | 05:16 | 5.0 | 93 | 4.0 | 1018.1 | 3.1 | SSW | 0 | 0.8 |
| 30.03.2026 | 05:21 | 5.0 | 93 | 4.0 | 1018.2 | 2.2 | SSW | 0 | 0.8 |
| 30.03.2026 | 05:26 | 5.0 | 93 | 4.0 | 1018.2 | 1.8 | SW | 0 | 0.8 |
| 30.03.2026 | 05:31 | 5.0 | 93 | 4.0 | 1018.2 | 1.3 | SW | 0 | 0.8 |
| 30.03.2026 | 05:36 | 5.1 | 93 | 4.1 | 1017.9 | 1.8 | S | 0 | 0.8 |
| 30.03.2026 | 05:41 | 5.1 | 93 | 4.1 | 1017.9 | 1.8 | SSW | 0 | 0.8 |
| 30.03.2026 | 05:46 | 5.2 | 93 | 4.2 | 1017.8 | 2.2 | SW | 0 | 0.8 |
| 30.03.2026 | 05:51 | 5.3 | 93 | 4.3 | 1017.7 | 1.3 | SW | 0 | 0.8 |
| 30.03.2026 | 05:56 | 5.3 | 93 | 4.3 | 1017.4 | 1.8 | S | 0 | 0.8 |
| 30.03.2026 | 06:01 | 5.3 | 93 | 4.3 | 1017.4 | 1.8 | SSW | 0 | 0.8 |
| 30.03.2026 | 06:06 | 5.3 | 93 | 4.3 | 1017.4 | 1.8 | SSW | 0 | 0.8 |
| 30.03.2026 | 06:11 | 5.3 | 93 | 4.3 | 1017.5 | 4.0 | S | 0 | 0.8 |
| 30.03.2026 | 06:16 | 5.3 | 93 | 4.3 | 1017.7 | 4.9 | SW | 0 | 0.8 |
| 30.03.2026 | 06:21 | 5.3 | 93 | 4.3 | 1017.7 | 4.5 | WSW | 0 | 0.8 |
| 30.03.2026 | 06:26 | 5.3 | 93 | 4.3 | 1017.6 | 1.8 | SSW | 0 | 0.8 |
| 30.03.2026 | 06:32 | 5.3 | 93 | 4.3 | 1017.7 | 3.1 | SW | 0 | 0.8 |
| 30.03.2026 | 06:37 | 5.3 | 93 | 4.3 | 1017.8 | 4.5 | WSW | 0 | 0.8 |
| 30.03.2026 | 06:42 | 5.3 | 93 | 4.3 | 1017.7 | 3.6 | SW | 0 | 0.8 |
| 30.03.2026 | 06:47 | 5.4 | 93 | 4.4 | 1017.7 | 4.0 | SSO | 0 | 0.8 |
| 30.03.2026 | 06:52 | 5.4 | 93 | 4.4 | 1017.8 | 3.1 | SW | 0 | 0.8 |
| 30.03.2026 | 06:57 | 5.4 | 93 | 4.4 | 1017.8 | 1.3 | SW | 0 | 0.8 |
| 30.03.2026 | 07:02 | 5.5 | 93 | 4.5 | 1017.7 | 3.1 | SW | 0 | 0.8 |
| 30.03.2026 | 07:07 | 5.5 | 93 | 4.5 | 1017.7 | 3.1 | WSW | 0 | 0.8 |
| 30.03.2026 | 07:12 | 5.5 | 93 | 4.5 | 1017.8 | 3.1 | SW | 0 | 0.8 |
| 30.03.2026 | 07:17 | 5.5 | 93 | 4.5 | 1017.9 | 2.2 | WSW | 0 | 0.8 |
| 30.03.2026 | 07:22 | 5.5 | 93 | 4.5 | 1018.0 | 3.1 | W | 0 | 0.8 |
| 30.03.2026 | 07:27 | 5.5 | 92 | 4.3 | 1017.9 | 2.7 | W | 5 | 0.8 |
| 30.03.2026 | 07:32 | 5.5 | 92 | 4.3 | 1017.9 | 2.2 | WSW | 9 | 0.8 |
| 30.03.2026 | 07:37 | 5.5 | 92 | 4.3 | 1018.0 | 3.6 | WSW | 14 | 0.8 |
| 30.03.2026 | 07:42 | 5.5 | 92 | 4.3 | 1018.1 | 2.7 | WSW | 19 | 0.8 |
| 30.03.2026 | 07:47 | 5.4 | 92 | 4.2 | 1018.1 | 0.9 | SW | 23 | 0.8 |
| 30.03.2026 | 07:52 | 5.4 | 92 | 4.2 | 1018.0 | 1.8 | WSW | 26 | 0.8 |
| 30.03.2026 | 07:57 | 5.3 | 92 | 4.1 | 1018.2 | 1.3 | SW | 30 | 0.8 |
| 30.03.2026 | 08:02 | 5.4 | 92 | 4.2 | 1018.1 | 0.9 | WSW | 53 | 0.8 |
| 30.03.2026 | 08:07 | 5.4 | 92 | 4.2 | 1018.2 | 2.2 | WSW | 67 | 0.8 |
| 30.03.2026 | 08:12 | 5.5 | 92 | 4.3 | 1018.2 | 1.8 | SW | 98 | 0.8 |
| 30.03.2026 | 08:17 | 5.6 | 92 | 4.4 | 1018.1 | 1.8 | W | 91 | 0.8 |
| 30.03.2026 | 08:22 | 5.8 | 92 | 4.6 | 1018.1 | 2.2 | WSW | 100 | 0.8 |
| 30.03.2026 | 08:27 | 5.9 | 91 | 4.5 | 1018.1 | 2.7 | WSW | 114 | 0.8 |
| 30.03.2026 | 08:32 | 6.0 | 91 | 4.6 | 1018.1 | 1.3 | WSW | 128 | 0.8 |
| 30.03.2026 | 08:37 | 6.1 | 90 | 4.6 | 1018.1 | 3.1 | W | 146 | 0.8 |
| 30.03.2026 | 08:42 | 6.2 | 89 | 4.5 | 1018.2 | 0.4 | WSW | 158 | 0.8 |
| 30.03.2026 | 08:47 | 6.4 | 89 | 4.7 | 1018.2 | 0.0 | WSW | 179 | 0.8 |
| 30.03.2026 | 08:52 | 6.5 | 89 | 4.8 | 1018.2 | 2.2 | WSW | 193 | 0.8 |
| 30.03.2026 | 08:57 | 6.6 | 88 | 4.8 | 1018.2 | 1.3 | SW | 271 | 0.8 |
| 30.03.2026 | 09:02 | 6.8 | 87 | 4.8 | 1018.2 | 1.8 | WNW | 137 | 0.8 |
| 30.03.2026 | 09:07 | 6.9 | 87 | 4.9 | 1018.2 | 2.7 | SW | 111 | 0.8 |
| 30.03.2026 | 09:12 | 6.8 | 86 | 4.6 | 1018.2 | 1.8 | SW | 118 | 0.8 |
| 30.03.2026 | 09:17 | 6.6 | 86 | 4.4 | 1018.3 | 1.8 | SSW | 153 | 0.8 |
| 30.03.2026 | 09:22 | 6.8 | 87 | 4.8 | 1018.3 | 1.8 | WSW | 381 | 0.8 |
| 30.03.2026 | 09:28 | 7.0 | 86 | 4.8 | 1018.3 | 1.8 | WSW | 169 | 0.8 |
| 30.03.2026 | 09:33 | 7.0 | 86 | 4.8 | 1018.3 | 1.3 | W | 97 | 0.8 |
| 30.03.2026 | 09:38 | 7.0 | 85 | 4.7 | 1018.3 | 1.3 | W | 105 | 0.8 |
| 30.03.2026 | 09:43 | 6.9 | 84 | 4.4 | 1018.2 | 2.2 | WSW | 139 | 0.8 |
| 30.03.2026 | 09:48 | 7.0 | 84 | 4.5 | 1018.2 | 3.1 | WSW | 158 | 0.8 |
| 30.03.2026 | 09:53 | 7.0 | 83 | 4.3 | 1018.2 | 1.8 | WSW | 70 | 0.8 |
| 30.03.2026 | 09:58 | 6.9 | 83 | 4.2 | 1018.2 | 0.4 | W | 35 | 0.8 |
| 30.03.2026 | 10:03 | 6.8 | 82 | 3.9 | 1018.3 | 0.4 | WSW | 42 | 0.8 |
| 30.03.2026 | 10:08 | 6.8 | 82 | 3.9 | 1018.4 | 2.7 | NW | 84 | 0.8 |
| 30.03.2026 | 10:13 | 6.8 | 82 | 3.9 | 1018.3 | 1.3 | SSW | 130 | 0.8 |
| 30.03.2026 | 10:18 | 6.8 | 82 | 3.9 | 1018.3 | 2.2 | SW | 197 | 0.8 |
| 30.03.2026 | 10:23 | 7.0 | 82 | 4.1 | 1018.3 | 1.8 | WSW | 151 | 0.8 |
| 30.03.2026 | 10:28 | 7.1 | 81 | 4.1 | 1018.3 | 1.3 | W | 174 | 0.8 |
| 30.03.2026 | 10:33 | 7.3 | 81 | 4.3 | 1018.2 | 1.3 | SW | 329 | 0.8 |
| 30.03.2026 | 10:38 | 7.4 | 80 | 4.2 | 1018.2 | 0.9 | WNW | 199 | 0.8 |
| 30.03.2026 | 10:43 | 7.7 | 79 | 4.3 | 1018.2 | 2.7 | NNW | 515 | 0.8 |
| 30.03.2026 | 10:48 | 7.8 | 77 | 4.0 | 1018.2 | 2.2 | SW | 612 | 0.8 |
| 30.03.2026 | 10:53 | 7.9 | 77 | 4.1 | 1018.2 | 2.2 | SSW | 274 | 0.8 |
| 30.03.2026 | 10:58 | 8.0 | 75 | 3.8 | 1018.3 | 1.8 | NW | 236 | 0.8 |
| 30.03.2026 | 11:03 | 7.8 | 73 | 3.3 | 1018.3 | 2.2 | NNW | 123 | 0.8 |
| 30.03.2026 | 11:08 | 7.9 | 74 | 3.6 | 1018.4 | 2.7 | NNW | 274 | 0.8 |
| 30.03.2026 | 11:13 | 8.0 | 73 | 3.5 | 1018.4 | 0.9 | WNW | 724 | 0.8 |
| 30.03.2026 | 11:18 | 8.3 | 72 | 3.5 | 1018.3 | 2.2 | SW | 724 | 0.8 |
| 30.03.2026 | 11:23 | 8.4 | 71 | 3.4 | 1018.1 | 1.8 | NNW | 359 | 0.8 |
| 30.03.2026 | 11:28 | 8.3 | 70 | 3.1 | 1018.1 | 1.3 | NW | 330 | 0.8 |
| 30.03.2026 | 11:33 | 8.4 | 70 | 3.2 | 1018.2 | 1.3 | W | 396 | 0.8 |
| 30.03.2026 | 11:38 | 8.4 | 70 | 3.2 | 1018.2 | 1.8 | WNW | 508 | 0.8 |
| 30.03.2026 | 11:43 | 8.5 | 70 | 3.3 | 1018.2 | 0.9 | N | 202 | 0.8 |
| 30.03.2026 | 11:48 | 8.5 | 70 | 3.3 | 1018.2 | 1.8 | SW | 373 | 0.8 |
| 30.03.2026 | 11:53 | 8.7 | 72 | 3.9 | 1018.4 | 3.1 | WSW | 211 | 0.8 |
| 30.03.2026 | 11:58 | 8.8 | 72 | 4.0 | 1018.3 | 1.8 | WSW | 211 | 0.8 |
| 30.03.2026 | 12:04 | 8.5 | 70 | 3.3 | 1018.4 | 1.8 | SW | 696 | 0.8 |
| 30.03.2026 | 12:09 | 8.9 | 71 | 3.9 | 1018.3 | 0.9 | NNO | 779 | 0.8 |
| 30.03.2026 | 12:14 | 9.4 | 69 | 4.0 | 1018.3 | 2.7 | NW | 269 | 0.8 |
| 30.03.2026 | 12:19 | 9.7 | 68 | 4.1 | 1018.4 | 1.8 | WSW | 770 | 0.8 |
| 30.03.2026 | 12:24 | 9.8 | 68 | 4.2 | 1018.4 | 2.2 | SW | 371 | 0.8 |
| 30.03.2026 | 12:29 | 9.6 | 67 | 3.8 | 1018.4 | 2.2 | SW | 258 | 0.8 |
| 30.03.2026 | 12:34 | 8.9 | 68 | 3.3 | 1018.3 | 2.2 | WSW | 163 | 0.8 |
| 30.03.2026 | 12:39 | 8.7 | 70 | 3.5 | 1018.4 | 2.2 | NNW | 399 | 0.8 |
| 30.03.2026 | 12:44 | 8.9 | 70 | 3.7 | 1018.2 | 5.4 | WSW | 348 | 0.8 |
| 30.03.2026 | 12:49 | 9.0 | 68 | 3.4 | 1018.1 | 2.2 | WSW | 353 | 0.8 |
| 30.03.2026 | 12:54 | 9.4 | 68 | 3.8 | 1018.2 | 3.6 | WNW | 313 | 0.8 |
| 30.03.2026 | 12:59 | 9.3 | 64 | 2.8 | 1018.3 | 3.6 | NNW | 325 | 0.8 |
| 30.03.2026 | 13:04 | 9.1 | 65 | 2.9 | 1018.1 | 3.6 | WNW | 287 | 0.8 |
| 30.03.2026 | 13:09 | 9.1 | 63 | 2.4 | 1018.1 | 0.9 | NNW | 237 | 0.8 |
| 30.03.2026 | 13:14 | 9.0 | 62 | 2.1 | 1018.2 | 1.3 | N | 223 | 0.8 |
| 30.03.2026 | 13:19 | 8.9 | 63 | 2.2 | 1018.2 | 0.9 | NNW | 190 | 0.8 |
| 30.03.2026 | 13:24 | 8.7 | 62 | 1.8 | 1018.3 | 1.3 | NNW | 156 | 0.8 |
| 30.03.2026 | 13:29 | 8.5 | 64 | 2.1 | 1018.6 | 1.3 | N | 116 | 0.8 |
| 30.03.2026 | 13:34 | 7.9 | 66 | 1.9 | 1019.1 | 2.2 | NNW | 51 | 0.8 |
| 30.03.2026 | 13:39 | 6.5 | 76 | 2.6 | 1019.3 | 1.8 | NNW | 53 | 1.0 |
| 30.03.2026 | 13:44 | 5.6 | 81 | 2.6 | 1019.3 | 3.6 | NW | 60 | 1.2 |
| 30.03.2026 | 13:49 | 5.2 | 84 | 2.7 | 1019.1 | 1.8 | WSW | 146 | 1.4 |
| 30.03.2026 | 13:54 | 5.0 | 86 | 2.9 | 1019.0 | 0.9 | NNW | 190 | 1.4 |
| 30.03.2026 | 13:59 | 5.0 | 88 | 3.2 | 1019.0 | 1.3 | NW | 309 | 1.4 |
| 30.03.2026 | 14:04 | 5.3 | 89 | 3.6 | 1018.8 | 0.9 | SSW | 756 | 1.4 |
| 30.03.2026 | 14:09 | 5.8 | 89 | 4.1 | 1018.7 | 1.3 | WNW | 719 | 1.4 |
| 30.03.2026 | 14:14 | 6.3 | 89 | 4.6 | 1018.7 | 3.6 | WSW | 503 | 1.4 |
| 30.03.2026 | 14:19 | 6.6 | 89 | 4.9 | 1018.7 | 1.3 | SW | 362 | 1.4 |
| 30.03.2026 | 14:25 | 6.7 | 88 | 4.9 | 1018.6 | 1.3 | NNW | 262 | 1.4 |
| 30.03.2026 | 14:30 | 6.7 | 87 | 4.7 | 1018.5 | 2.2 | NW | 192 | 1.4 |
| 30.03.2026 | 14:35 | 6.7 | 87 | 4.7 | 1018.6 | 1.8 | NNW | 172 | 1.4 |
| 30.03.2026 | 14:40 | 6.6 | 86 | 4.4 | 1018.7 | 0.9 | WNW | 104 | 1.4 |
| 30.03.2026 | 14:45 | 6.5 | 86 | 4.3 | 1018.8 | 1.3 | NNW | 47 | 1.4 |
| 30.03.2026 | 14:50 | 6.1 | 86 | 3.9 | 1018.9 | 2.2 | NW | 60 | 1.6 |
| 30.03.2026 | 14:55 | 5.6 | 87 | 3.6 | 1019.0 | 2.2 | NNW | 139 | 1.8 |
| 30.03.2026 | 15:00 | 5.5 | 88 | 3.7 | 1018.9 | 1.3 | WNW | 171 | 1.8 |
| 30.03.2026 | 15:05 | 5.3 | 89 | 3.6 | 1019.0 | 1.3 | SW | 229 | 2.0 |
| 30.03.2026 | 15:10 | 5.2 | 89 | 3.5 | 1018.8 | 2.2 | WSW | 246 | 2.0 |
| 30.03.2026 | 15:15 | 5.3 | 89 | 3.6 | 1019.0 | 1.3 | SW | 271 | 2.0 |
| 30.03.2026 | 15:20 | 5.4 | 89 | 3.7 | 1018.8 | 1.8 | WSW | 290 | 2.0 |
| 30.03.2026 | 15:25 | 5.5 | 89 | 3.8 | 1018.8 | 0.9 | WNW | 299 | 2.0 |
| 30.03.2026 | 15:30 | 5.7 | 89 | 4.0 | 1018.6 | 0.9 | WNW | 339 | 2.0 |
| 30.03.2026 | 15:35 | 6.1 | 89 | 4.4 | 1018.7 | 1.3 | S | 802 | 2.0 |
| 30.03.2026 | 15:40 | 6.5 | 88 | 4.7 | 1018.6 | 0.9 | W | 218 | 2.0 |
| 30.03.2026 | 15:45 | 6.5 | 87 | 4.5 | 1018.7 | 0.4 | SO | 142 | 2.0 |
| 30.03.2026 | 15:50 | 6.5 | 86 | 4.3 | 1018.7 | 0.9 | NNW | 410 | 2.0 |
| 30.03.2026 | 15:55 | 6.8 | 87 | 4.8 | 1018.5 | 0.9 | NW | 591 | 2.0 |
| 30.03.2026 | 16:00 | 7.0 | 87 | 5.0 | 1018.7 | 1.8 | SW | 155 | 2.0 |
| 30.03.2026 | 16:05 | 6.5 | 86 | 4.3 | 1018.7 | 2.7 | NNW | 134 | 2.0 |
| 30.03.2026 | 16:10 | 5.9 | 87 | 3.9 | 1019.0 | 2.2 | WNW | 93 | 2.0 |
| 30.03.2026 | 16:15 | 5.4 | 87 | 3.4 | 1018.6 | 1.3 | NW | 207 | 2.0 |
| 30.03.2026 | 16:20 | 5.4 | 88 | 3.6 | 1018.6 | 2.2 | NW | 329 | 2.2 |
| 30.03.2026 | 16:25 | 5.7 | 89 | 4.0 | 1018.8 | 1.3 | NW | 142 | 2.2 |
| 30.03.2026 | 16:30 | 5.8 | 89 | 4.1 | 1019.0 | 0.4 | WNW | 76 | 2.2 |
| 30.03.2026 | 16:35 | 5.6 | 88 | 3.8 | 1019.2 | 1.8 | WNW | 51 | 2.2 |
| 30.03.2026 | 16:40 | 5.4 | 88 | 3.6 | 1019.0 | 2.7 | WSW | 120 | 2.2 |
| 30.03.2026 | 16:45 | 5.3 | 89 | 3.6 | 1019.1 | 1.3 | NW | 142 | 2.2 |
| 30.03.2026 | 16:50 | 5.4 | 89 | 3.7 | 1019.0 | 2.2 | NW | 199 | 2.2 |
| 30.03.2026 | 16:55 | 5.5 | 89 | 3.8 | 1019.0 | 1.8 | NNW | 227 | 2.2 |
| 30.03.2026 | 17:00 | 5.7 | 89 | 4.0 | 1019.2 | 0.9 | NW | 264 | 2.2 |
| 30.03.2026 | 17:05 | 5.8 | 88 | 4.0 | 1019.2 | 0.9 | NNW | 178 | 2.2 |
| 30.03.2026 | 17:10 | 5.9 | 88 | 4.1 | 1019.0 | 1.8 | NW | 197 | 2.2 |
| 30.03.2026 | 17:16 | 6.1 | 88 | 4.3 | 1019.0 | 1.8 | NW | 520 | 2.2 |
| 30.03.2026 | 17:21 | 6.5 | 88 | 4.7 | 1019.1 | 1.8 | NW | 506 | 2.2 |
| 30.03.2026 | 17:26 | 7.0 | 87 | 5.0 | 1019.2 | 0.9 | W | 540 | 2.2 |
| 30.03.2026 | 17:31 | 7.0 | 85 | 4.7 | 1019.6 | 6.3 | NNW | 178 | 2.2 |
| 30.03.2026 | 17:36 | 6.8 | 83 | 4.1 | 1019.4 | 4.5 | WNW | 350 | 2.2 |
| 30.03.2026 | 17:41 | 6.8 | 84 | 4.3 | 1019.3 | 0.9 | WNW | 452 | 2.2 |
| 30.03.2026 | 17:46 | 6.7 | 84 | 4.2 | 1019.5 | 4.0 | NNW | 399 | 2.2 |
| 30.03.2026 | 17:51 | 6.5 | 84 | 4.0 | 1019.6 | 0.4 | OSO | 132 | 2.2 |
| 30.03.2026 | 17:56 | 6.3 | 84 | 3.8 | 1019.6 | 0.4 | SW | 104 | 2.2 |
| 30.03.2026 | 18:01 | 6.0 | 84 | 3.5 | 1019.6 | 0.4 | NNW | 91 | 2.2 |
| 30.03.2026 | 18:06 | 5.9 | 85 | 3.6 | 1019.6 | 1.3 | NW | 60 | 2.2 |
| 30.03.2026 | 18:11 | 5.7 | 85 | 3.4 | 1019.7 | 0.9 | NNW | 63 | 2.2 |
| 30.03.2026 | 18:16 | 5.6 | 86 | 3.4 | 1019.6 | 0.9 | NNW | 32 | 2.2 |
| 30.03.2026 | 18:21 | 5.5 | 87 | 3.5 | 1019.8 | 1.3 | NNO | 39 | 2.2 |
| 30.03.2026 | 18:26 | 5.4 | 87 | 3.4 | 1019.9 | 0.9 | WNW | 33 | 2.4 |
| 30.03.2026 | 18:31 | 5.1 | 88 | 3.3 | 1020.0 | 4.0 | W | 28 | 2.4 |
| 30.03.2026 | 18:36 | 4.9 | 88 | 3.1 | 1020.3 | 3.6 | WNW | 28 | 2.6 |
| 30.03.2026 | 18:41 | 4.6 | 89 | 2.9 | 1020.2 | 1.3 | NW | 39 | 2.6 |
| 30.03.2026 | 18:46 | 4.4 | 89 | 2.7 | 1020.0 | 1.8 | NW | 74 | 2.6 |
| 30.03.2026 | 18:51 | 4.4 | 89 | 2.7 | 1020.0 | 1.3 | NW | 104 | 2.6 |
| 30.03.2026 | 18:56 | 4.5 | 90 | 3.0 | 1020.0 | 0.9 | NNW | 130 | 2.6 |
| 30.03.2026 | 19:01 | 4.6 | 90 | 3.1 | 1020.1 | 1.8 | NW | 74 | 2.6 |
| 30.03.2026 | 19:06 | 4.5 | 90 | 3.0 | 1020.2 | 1.3 | NNW | 53 | 2.6 |
| 30.03.2026 | 19:11 | 4.4 | 90 | 2.9 | 1020.1 | 0.4 | NW | 28 | 2.6 |
| 30.03.2026 | 19:16 | 4.3 | 89 | 2.6 | 1020.1 | 0.9 | NNW | 53 | 2.6 |
| 30.03.2026 | 19:21 | 4.3 | 89 | 2.6 | 1020.2 | 2.2 | NNW | 18 | 2.6 |
| 30.03.2026 | 19:26 | 4.1 | 89 | 2.5 | 1020.3 | 2.2 | NW | 14 | 2.6 |
| 30.03.2026 | 19:31 | 4.0 | 88 | 2.2 | 1020.4 | 1.3 | NW | 14 | 2.6 |
| 30.03.2026 | 19:36 | 4.0 | 88 | 2.2 | 1020.5 | 0.4 | NW | 12 | 2.6 |
| 30.03.2026 | 19:41 | 3.9 | 88 | 2.1 | 1020.7 | 0.9 | WSW | 11 | 2.6 |
| 30.03.2026 | 19:46 | 3.8 | 88 | 2.0 | 1020.7 | 0.9 | WNW | 9 | 2.6 |
| 30.03.2026 | 19:51 | 3.8 | 88 | 2.0 | 1020.8 | 0.9 | WNW | 7 | 2.6 |
| 30.03.2026 | 19:56 | 3.8 | 88 | 2.0 | 1020.9 | 1.3 | NW | 7 | 2.6 |
| 30.03.2026 | 20:01 | 3.8 | 88 | 2.0 | 1021.0 | 0.9 | NW | 5 | 2.6 |
| 30.03.2026 | 20:07 | 3.8 | 89 | 2.2 | 1021.1 | 1.8 | NW | 0 | 2.6 |
| 30.03.2026 | 20:12 | 4.0 | 89 | 2.4 | 1021.2 | 1.3 | NW | 0 | 2.6 |
| 30.03.2026 | 20:17 | 4.1 | 89 | 2.5 | 1021.3 | 1.3 | W | 0 | 2.6 |
| 30.03.2026 | 20:22 | 4.2 | 89 | 2.5 | 1021.3 | 0.9 | NW | 0 | 2.6 |
| 30.03.2026 | 20:27 | 4.2 | 88 | 2.4 | 1021.4 | 1.3 | NW | 0 | 2.6 |
| 30.03.2026 | 20:32 | 4.1 | 88 | 2.3 | 1021.6 | 0.9 | NNW | 0 | 2.6 |
| 30.03.2026 | 20:37 | 4.1 | 88 | 2.3 | 1021.6 | 0.4 | NW | 0 | 2.6 |
| 30.03.2026 | 20:42 | 4.0 | 88 | 2.2 | 1021.7 | 0.9 | NW | 0 | 2.6 |
| 30.03.2026 | 20:47 | 4.0 | 88 | 2.2 | 1021.8 | 0.9 | NW | 0 | 2.6 |
| 30.03.2026 | 20:52 | 4.0 | 88 | 2.2 | 1021.9 | 1.3 | NW | 0 | 2.6 |
| 30.03.2026 | 20:57 | 4.0 | 88 | 2.2 | 1022.0 | 1.8 | NW | 0 | 2.6 |
| 30.03.2026 | 21:02 | 3.9 | 88 | 2.1 | 1022.1 | 1.3 | NW | 0 | 2.6 |
| 30.03.2026 | 21:07 | 3.8 | 88 | 2.0 | 1022.0 | 0.4 | NNW | 0 | 2.6 |
| 30.03.2026 | 21:12 | 3.6 | 88 | 1.8 | 1022.1 | 1.8 | NW | 0 | 2.6 |
| 30.03.2026 | 21:17 | 3.5 | 88 | 1.7 | 1022.2 | 0.4 | NW | 0 | 2.6 |
| 30.03.2026 | 21:22 | 3.4 | 89 | 1.8 | 1022.4 | 0.9 | WNW | 0 | 2.6 |
| 30.03.2026 | 21:27 | 3.4 | 89 | 1.8 | 1022.5 | 0.4 | NNW | 0 | 2.6 |
| 30.03.2026 | 21:32 | 3.5 | 89 | 1.9 | 1022.7 | 0.9 | WNW | 0 | 2.6 |
| 30.03.2026 | 21:37 | 3.7 | 89 | 2.1 | 1022.9 | 3.1 | ONO | 0 | 2.6 |
| 30.03.2026 | 21:42 | 3.8 | 89 | 2.2 | 1022.9 | 1.3 | SSW | 0 | 2.6 |
| 30.03.2026 | 21:47 | 3.8 | 89 | 2.2 | 1022.8 | 0.9 | NNW | 0 | 2.6 |
| 30.03.2026 | 21:52 | 3.8 | 89 | 2.2 | 1022.9 | 3.1 | NW | 0 | 2.6 |
| 30.03.2026 | 21:57 | 3.7 | 89 | 2.1 | 1023.0 | 1.3 | NW | 0 | 2.6 |
| 30.03.2026 | 22:02 | 3.7 | 89 | 2.1 | 1023.1 | 0.4 | NW | 0 | 2.6 |
| 30.03.2026 | 22:07 | 3.6 | 89 | 2.0 | 1023.1 | 0.9 | NW | 0 | 2.6 |
| 30.03.2026 | 22:12 | 3.5 | 89 | 1.9 | 1023.2 | 0.9 | NW | 0 | 2.6 |
| 30.03.2026 | 22:17 | 3.4 | 89 | 1.8 | 1023.2 | 0.9 | NW | 0 | 2.6 |
| 30.03.2026 | 22:22 | 3.3 | 89 | 1.7 | 1023.3 | 0.9 | NNW | 0 | 2.6 |
| 30.03.2026 | 22:27 | 3.0 | 89 | 1.4 | 1023.4 | 0.9 | NW | 0 | 2.6 |
| 30.03.2026 | 22:32 | 2.9 | 89 | 1.3 | 1023.4 | 0.4 | NW | 0 | 2.6 |
| 30.03.2026 | 22:37 | 2.8 | 89 | 1.2 | 1023.4 | 0.4 | NW | 0 | 2.6 |
| 30.03.2026 | 22:42 | 2.6 | 90 | 1.1 | 1023.4 | 1.3 | NW | 0 | 2.6 |
| 30.03.2026 | 22:47 | 2.6 | 90 | 1.1 | 1023.5 | 0.9 | NW | 0 | 2.6 |
| 30.03.2026 | 22:52 | 2.5 | 90 | 1.0 | 1023.5 | 0.4 | NW | 0 | 2.6 |
| 30.03.2026 | 22:58 | 2.5 | 90 | 1.0 | 1023.5 | 0.9 | NNW | 0 | 2.6 |
| 30.03.2026 | 23:03 | 2.5 | 90 | 1.0 | 1023.6 | 0.4 | NW | 0 | 2.6 |
| 30.03.2026 | 23:08 | 2.5 | 90 | 1.0 | 1023.5 | 0.9 | NNW | 0 | 2.6 |
| 30.03.2026 | 23:13 | 2.5 | 90 | 1.0 | 1023.6 | 0.9 | NW | 0 | 2.6 |
| 30.03.2026 | 23:18 | 2.4 | 90 | 0.9 | 1023.7 | 0.9 | NW | 0 | 2.6 |
| 30.03.2026 | 23:23 | 2.4 | 90 | 0.9 | 1023.8 | 0.9 | NW | 0 | 2.6 |
| 30.03.2026 | 23:28 | 2.3 | 90 | 0.8 | 1024.0 | 1.8 | WNW | 0 | 2.6 |
| 30.03.2026 | 23:33 | 2.3 | 90 | 0.8 | 1024.0 | 1.3 | NW | 0 | 2.6 |
| 30.03.2026 | 23:38 | 2.3 | 91 | 1.0 | 1023.9 | 0.9 | NW | 0 | 2.6 |
| 30.03.2026 | 23:43 | 2.3 | 91 | 1.0 | 1024.0 | 0.9 | NW | 0 | 2.6 |
| 30.03.2026 | 23:48 | 2.3 | 91 | 1.0 | 1024.0 | 0.9 | NNW | 0 | 2.6 |
| 30.03.2026 | 23:53 | 2.4 | 91 | 1.1 | 1024.0 | 0.9 | NW | 0 | 2.6 |
| 30.03.2026 | 23:58 | 2.4 | 91 | 1.1 | 1024.0 | 0.0 | NW | 0 | 2.6 |